Location: Unspecified
(58.9933°N, 5.6375°E)
Time: 23:47:44
(UTC+01:00)

Cosmos 1674 - Visible Passes

Search period start: 27 February 2017 00:00
Search period end: 09 March 2017 00:00
Orbit: 499 x 524 km, 82.5° (Epoch: 27 February)

Date Brightness Start Highest point End Pass type
(mag) Time Alt. Az. Time Alt. Az. Time Alt. Az.
01 Mar 5.8 22:40:43 10° N 22:40:54 11° N 22:40:54 11° N visible
02 Mar 5.6 22:24:24 10° N 22:24:46 12° N 22:24:46 12° N visible
03 Mar 5.4 22:08:05 10° N 22:08:38 13° N 22:08:38 13° N visible
03 Mar 6.1 23:43:33 10° NNW 23:43:33 10° NNW 23:43:33 10° NNW visible
04 Mar 5.3 21:51:47 10° N 21:52:30 14° NNE 21:52:30 14° NNE visible
04 Mar 5.9 23:27:07 10° NNW 23:27:26 12° NNW 23:27:26 12° NNW visible
05 Mar 5.1 21:35:31 10° N 21:36:23 14° NNE 21:36:23 14° NNE visible
05 Mar 5.7 23:10:41 10° NNW 23:11:18 14° NNW 23:11:18 14° NNW visible
06 Mar 5.0 21:19:16 10° NNE 21:20:16 14° NNE 21:20:16 14° NNE visible
06 Mar 5.4 22:54:16 10° NNW 22:55:11 17° NNW 22:55:11 17° NNW visible
07 Mar 5.0 21:03:03 10° NNE 21:04:10 14° NNE 21:04:10 14° NNE visible
07 Mar 5.2 22:37:51 10° NNW 22:39:05 20° NNW 22:39:05 20° NNW visible
08 Mar 4.9 20:46:53 10° NNE 20:48:04 13° NE 20:48:04 13° NE visible
08 Mar 4.8 22:21:27 10° N 22:23:00 23° N 22:23:00 23° N visible
